ARG1935 SARI-SABE

Flight info

Callsign ARG1935
Flight time N/A
Altitude 38000
Route NAIDE2C NAIDE UT667 GEMSU UN785 GUA UZ129 PAGON PAGON8Q
Aircraft E190/M-SDE3GILORVW/S

Departure

Time 2026-04-15 19:21
Airport Cataratas Del Iguazú International Airport (SARI)

Arrival

Time N/A
Airport Aeroparque Jorge Newbery (SABE)
Time Latitude Longitude Altitude Speed Heading
2026-04-15 18:38 -25.73209 -54.47708 926 ft 0 kts 27°
2026-04-15 19:12 -25.73220 -54.47714 926 ft 4 kts 26°
2026-04-15 19:12 -25.73245 -54.47725 926 ft 4 kts 359°
2026-04-15 19:12 -25.73260 -54.47719 926 ft 2 kts 295°
2026-04-15 19:13 -25.73271 -54.47693 928 ft 3 kts 295°
2026-04-15 19:13 -25.73272 -54.47690 929 ft 0 kts 295°
2026-04-15 19:15 -25.73270 -54.47695 929 ft 2 kts 295°
2026-04-15 19:15 -25.73261 -54.47717 926 ft 5 kts 295°
2026-04-15 19:15 -25.73241 -54.47763 926 ft 8 kts 295°
2026-04-15 19:15 -25.73220 -54.47832 926 ft 11 kts 272°
2026-04-15 19:16 -25.73227 -54.47927 927 ft 14 kts 265°
2026-04-15 19:16 -25.73236 -54.48043 928 ft 17 kts 265°
2026-04-15 19:16 -25.73246 -54.48179 927 ft 19 kts 265°
2026-04-15 19:16 -25.73254 -54.48265 929 ft 4 kts 265°
2026-04-15 19:17 -25.73254 -54.48275 928 ft 0 kts 265°
2026-04-15 19:18 -25.73255 -54.48284 929 ft 5 kts 265°
2026-04-15 19:18 -25.73262 -54.48356 927 ft 15 kts 264°
2026-04-15 19:18 -25.73174 -54.48667 926 ft 21 kts 295°
2026-04-15 19:19 -25.73097 -54.48767 927 ft 11 kts 319°
2026-04-15 19:19 -25.73106 -54.48814 926 ft 4 kts 196°
2026-04-15 19:19 -25.73117 -54.48806 926 ft 1 kts 126°
2026-04-15 19:19 -25.73118 -54.48803 926 ft 0 kts 116°
2026-04-15 19:20 -25.73129 -54.48778 927 ft 15 kts 116°
2026-04-15 19:20 -25.73279 -54.48418 929 ft 88 kts 114°
2026-04-15 19:20 -25.73633 -54.47573 935 ft 150 kts 111°
2026-04-15 19:21 -25.74155 -54.46431 1198 ft 195 kts 115°
2026-04-15 19:21 -25.74806 -54.44913 1618 ft 216 kts 112°
2026-04-15 19:21 -25.75385 -54.43458 1675 ft 207 kts 111°
2026-04-15 19:21 -25.75981 -54.41900 1764 ft 241 kts 110°
2026-04-15 19:22 -25.76712 -54.40117 2716 ft 258 kts 115°
2026-04-15 19:22 -25.77986 -54.38633 3723 ft 281 kts 148°
2026-04-15 19:22 -25.79927 -54.37979 4593 ft 301 kts 172°
2026-04-15 19:22 -25.82029 -54.37797 5745 ft 302 kts 179°
2026-04-15 19:23 -25.84120 -54.37741 6991 ft 300 kts 180°
2026-04-15 19:23 -25.86210 -54.37636 8089 ft 302 kts 178°
2026-04-15 19:23 -25.88309 -54.37447 9087 ft 308 kts 176°
2026-04-15 19:23 -25.90426 -54.37212 10110 ft 314 kts 175°
2026-04-15 19:24 -25.92702 -54.36961 10746 ft 335 kts 176°
2026-04-15 19:24 -25.95023 -54.36730 10931 ft 335 kts 177°
2026-04-15 19:24 -25.97402 -54.36579 11778 ft 351 kts 181°
2026-04-15 19:24 -25.99861 -54.36598 13153 ft 352 kts 185°
2026-04-15 19:25 -26.02314 -54.36630 14027 ft 357 kts 180°
2026-04-15 19:25 -26.04818 -54.36378 14884 ft 365 kts 175°
2026-04-15 19:25 -26.07365 -54.36013 15826 ft 370 kts 175°
2026-04-15 19:25 -26.09949 -54.35721 16697 ft 376 kts 178°
2026-04-15 19:26 -26.12550 -54.35562 17548 ft 381 kts 180°
2026-04-15 19:26 -26.15217 -54.35487 18337 ft 386 kts 181°
2026-04-15 19:26 -26.17914 -54.35424 19136 ft 387 kts 181°
2026-04-15 19:26 -26.20615 -54.35332 19886 ft 389 kts 181°
2026-04-15 19:27 -26.23340 -54.35214 20638 ft 391 kts 181°
2026-04-15 19:27 -26.26013 -54.35416 21305 ft 388 kts 197°
2026-04-15 19:27 -26.28609 -54.36221 22049 ft 387 kts 201°
2026-04-15 19:27 -26.31171 -54.37190 22756 ft 388 kts 204°
2026-04-15 19:28 -26.33718 -54.38226 23447 ft 391 kts 204°
2026-04-15 19:28 -26.36295 -54.39250 23960 ft 394 kts 203°
2026-04-15 19:28 -26.38891 -54.40227 24449 ft 398 kts 202°
2026-04-15 19:28 -26.41538 -54.41189 24930 ft 401 kts 202°
2026-04-15 19:29 -26.44204 -54.42155 25375 ft 405 kts 202°
2026-04-15 19:29 -26.46884 -54.43145 25846 ft 407 kts 202°
2026-04-15 19:29 -26.49593 -54.44161 26295 ft 410 kts 202°
2026-04-15 19:29 -26.52306 -54.45183 26720 ft 414 kts 202°
2026-04-15 19:30 -26.55067 -54.46223 27133 ft 418 kts 202°
2026-04-15 19:30 -26.57818 -54.47256 27587 ft 421 kts 202°
2026-04-15 19:30 -26.60600 -54.48299 28006 ft 424 kts 202°
2026-04-15 19:30 -26.63407 -54.49354 28411 ft 427 kts 202°
2026-04-15 19:31 -26.66242 -54.50422 28742 ft 432 kts 202°
2026-04-15 19:31 -26.68129 -54.51134 29003 ft 433 kts 202°
2026-04-15 19:31 -26.70929 -54.52396 29361 ft 430 kts 213°
2026-04-15 19:31 -26.73489 -54.54117 29730 ft 431 kts 216°
2026-04-15 19:32 -26.76019 -54.55942 30044 ft 433 kts 218°
2026-04-15 19:32 -26.78509 -54.57804 30309 ft 435 kts 218°
2026-04-15 19:32 -26.81890 -54.60326 30677 ft 439 kts 217°
2026-04-15 19:32 -26.83592 -54.61576 30855 ft 440 kts 217°
2026-04-15 19:33 -26.86168 -54.63446 31117 ft 443 kts 217°
2026-04-15 19:33 -26.88777 -54.65333 31395 ft 445 kts 217°
2026-04-15 19:33 -26.91383 -54.67227 31647 ft 448 kts 217°
2026-04-15 19:33 -26.93992 -54.69134 31894 ft 450 kts 217°
2026-04-15 19:34 -26.96630 -54.71069 32153 ft 453 kts 217°
2026-04-15 19:34 -26.99271 -54.73004 32504 ft 452 kts 217°
2026-04-15 19:34 -27.01876 -54.74910 32893 ft 452 kts 217°
2026-04-15 19:34 -27.04520 -54.76845 33235 ft 452 kts 217°
2026-04-15 19:35 -27.07170 -54.78786 33586 ft 452 kts 217°
2026-04-15 19:35 -27.09793 -54.80712 33918 ft 452 kts 217°
2026-04-15 19:35 -27.12430 -54.82649 34227 ft 452 kts 217°
2026-04-15 19:35 -27.15050 -54.84576 34411 ft 455 kts 217°
2026-04-15 19:36 -27.17692 -54.86520 34739 ft 453 kts 217°
2026-04-15 19:36 -27.20336 -54.88463 35085 ft 451 kts 218°
2026-04-15 19:36 -27.22967 -54.90400 35292 ft 452 kts 218°
2026-04-15 19:36 -27.25600 -54.92339 35586 ft 451 kts 218°
2026-04-15 19:37 -27.28190 -54.94249 35871 ft 449 kts 218°
2026-04-15 19:37 -27.30810 -54.96184 36105 ft 450 kts 218°
2026-04-15 19:37 -27.33316 -54.98258 36318 ft 444 kts 228°
2026-04-15 19:37 -27.35250 -55.00901 36545 ft 432 kts 245°
2026-04-15 19:38 -27.36698 -55.03844 36853 ft 428 kts 248°
2026-04-15 19:38 -27.38041 -55.06826 37136 ft 426 kts 249°
2026-04-15 19:38 -27.39315 -55.09782 37399 ft 425 kts 249°
2026-04-15 19:38 -27.40616 -55.12784 37664 ft 424 kts 249°
2026-04-15 19:39 -27.41923 -55.15723 38070 ft 419 kts 249°
2026-04-15 19:39 -27.43253 -55.18665 37959 ft 427 kts 248°
2026-04-15 19:39 -27.46005 -55.24690 37913 ft 436 kts 248°
2026-04-15 19:40 -27.48791 -55.30865 37870 ft 445 kts 249°
2026-04-15 19:40 -27.51593 -55.37104 37882 ft 447 kts 248°
2026-04-15 19:41 -27.54391 -55.43316 37899 ft 446 kts 249°
2026-04-15 19:41 -27.57200 -55.49569 37885 ft 447 kts 249°
2026-04-15 19:42 -27.60013 -55.55835 37881 ft 449 kts 247°
2026-04-15 19:42 -27.61807 -55.58716 37930 ft 462 kts 232°
2026-04-15 19:42 -27.64291 -55.61072 37959 ft 472 kts 221°
2026-04-15 19:43 -27.66991 -55.63206 37821 ft 472 kts 219°
2026-04-15 19:43 -27.69749 -55.65223 37888 ft 473 kts 218°
2026-04-15 19:43 -27.75316 -55.69238 37873 ft 474 kts 219°
2026-04-15 19:44 -27.80773 -55.73350 37874 ft 473 kts 219°
2026-04-15 19:44 -27.86255 -55.77504 37879 ft 474 kts 219°
2026-04-15 19:45 -27.91770 -55.81642 37874 ft 477 kts 219°
2026-04-15 19:45 -27.97304 -55.85806 37873 ft 477 kts 219°
2026-04-15 19:46 -28.02805 -55.89956 37876 ft 475 kts 219°
2026-04-15 19:46 -28.08300 -55.94111 37865 ft 477 kts 219°
2026-04-15 19:47 -28.13807 -55.98273 37872 ft 478 kts 219°
2026-04-15 19:47 -28.19329 -56.02453 37870 ft 477 kts 219°
2026-04-15 19:48 -28.24861 -56.06647 37870 ft 478 kts 220°
2026-04-15 19:48 -28.30365 -56.10825 37858 ft 478 kts 220°
2026-04-15 19:49 -28.35898 -56.15029 37859 ft 478 kts 220°
2026-04-15 19:49 -28.41443 -56.19250 37862 ft 478 kts 220°
2026-04-15 19:50 -28.46940 -56.23438 37859 ft 478 kts 220°
2026-04-15 19:50 -28.52487 -56.27669 37858 ft 478 kts 220°
2026-04-15 19:51 -28.58011 -56.31888 37826 ft 480 kts 220°
2026-04-15 19:51 -28.63538 -56.36120 37844 ft 482 kts 220°
2026-04-15 19:52 -28.69105 -56.40381 37845 ft 482 kts 220°
2026-04-15 19:52 -28.74646 -56.44631 37843 ft 481 kts 220°
2026-04-15 19:53 -28.80202 -56.48897 37837 ft 481 kts 220°
2026-04-15 19:53 -28.85770 -56.53179 37825 ft 481 kts 221°
2026-04-15 19:54 -28.91297 -56.57443 37832 ft 481 kts 221°
2026-04-15 19:54 -28.96861 -56.61754 37839 ft 483 kts 221°
2026-04-15 19:55 -29.02428 -56.66069 37833 ft 483 kts 221°
2026-04-15 19:55 -29.07960 -56.70358 37828 ft 483 kts 221°
2026-04-15 19:56 -29.13523 -56.74679 37827 ft 483 kts 221°
2026-04-15 19:56 -29.18227 -56.78337 38901 ft 481 kts 221°